Location: Beazer
(49.1167°N, 113.4833°W)
Time: 09:24:25
(UTC+00:00)

ISS - Visible Passes

Search period start: 30 November 2021 00:00
Search period end: 10 December 2021 00:00
Orbit: 417 x 423 km, 51.6° (Epoch: 30 November)

Date Brightness Start Highest point End Pass type
(mag) Time Alt. Az. Time Alt. Az. Time Alt. Az.
30 Nov -3.5 01:25:53 10° WNW 01:29:14 54° N 01:29:50 46° NE visible
30 Nov -0.1 03:02:48 10° WNW 03:02:48 10° WNW 03:02:48 10° WNW visible
01 Dec -3.4 00:38:39 10° W 00:42:00 53° N 00:44:34 16° ENE visible
01 Dec -2.0 02:15:36 10° WNW 02:17:33 32° WNW 02:17:33 32° WNW visible
02 Dec -3.8 01:28:24 10° WNW 01:31:49 71° NNE 01:32:21 57° ENE visible
03 Dec -3.6 00:41:12 10° WNW 00:44:34 60° N 00:47:12 15° E visible
03 Dec -1.9 02:18:05 10° WNW 02:20:12 32° W 02:20:12 32° W visible
04 Dec -3.6 01:30:51 10° WNW 01:34:14 69° SSW 01:35:09 44° SE visible
05 Dec -3.8 00:43:37 10° WNW 00:47:02 89° NNE 00:50:14 11° ESE visible
05 Dec -1.5 02:20:48 10° W 02:23:15 22° SW 02:23:15 22° SW visible
06 Dec -2.1 01:33:22 10° W 01:36:28 33° SW 01:38:31 17° SSE visible
07 Dec -2.7 00:46:01 10° WNW 00:49:18 48° SSW 00:52:35 10° SE visible
08 Dec -0.7 01:36:24 10° W 01:38:27 15° SW 01:40:30 10° S visible
09 Dec -1.1 00:48:40 10° W 00:51:23 22° SW 00:54:05 10° SSE visible
